Estación de Nogales

Ultimos registro cada 15 minutos 81
Estación Fecha / Hora Temperatura Humedad Lluvia Velocidad Dirección Radiación Presion
81 Nogales 03-05-2026 20:00 11,4 58,8 0 0 208 0,6 986,8
80 Nogales 03-05-2026 19:45 12 58,2 0 0 208 0,6 986,8
79 Nogales 03-05-2026 19:30 13,2 54,7 0 0 208 0,6 986,6
78 Nogales 03-05-2026 19:15 14,5 53,6 0 0 208 0,6 986,4
77 Nogales 03-05-2026 19:00 14,6 51,8 0 0 208 0,6 986,4
76 Nogales 03-05-2026 18:45 15,7 49,1 0 0 208 0,6 986,4
75 Nogales 03-05-2026 18:30 17,2 44,7 0 0 208 0,6 986,2
74 Nogales 03-05-2026 18:15 18,3 41,6 0 0 208 1,9 985,9
73 Nogales 03-05-2026 18:00 20,3 37,8 0 1,7 199 8,1 985,6
72 Nogales 03-05-2026 17:45 21,7 37,2 0 1,3 213 16,9 985,4
71 Nogales 03-05-2026 17:30 22,9 37 0 1,7 212 21,9 985,2
70 Nogales 03-05-2026 17:15 23,9 36,8 0 2 212 128,1 985
69 Nogales 03-05-2026 17:00 25,4 35,6 0 1,3 257 176,9 984,6
68 Nogales 03-05-2026 16:45 26,7 34 0 1 257 221,9 984,4
67 Nogales 03-05-2026 16:30 26,8 33,2 0 1,7 232 269,4 984,4
66 Nogales 03-05-2026 16:15 27,4 31,6 0 1,3 232 313,1 984,3
65 Nogales 03-05-2026 16:00 27,2 31,7 0 1 239 360,6 984,2
64 Nogales 03-05-2026 15:45 27,5 31,2 0 1,3 227 405,6 984,4
63 Nogales 03-05-2026 15:30 27,5 31,4 0 1,3 209 448,1 984,4
62 Nogales 03-05-2026 15:15 0 0 0 1,7 237 484,4 984,4
61 Nogales 03-05-2026 15:00 27,4 30,5 0 2 211 526,9 984,4
60 Nogales 03-05-2026 14:45 27,3 30,2 0 2 254 569,4 984,4
59 Nogales 03-05-2026 14:30 28,2 27,8 0 1,3 293 601,9 984,3
58 Nogales 03-05-2026 14:15 27,8 28,8 0 1,3 225 625,6 984,5
57 Nogales 03-05-2026 14:00 27,4 30,8 0 1,7 205 649,4 984,4
56 Nogales 03-05-2026 13:45 27,3 30,8 0 1,3 184 664,4 984,5
55 Nogales 03-05-2026 13:30 27,1 30,5 0 2 173 685,6 984,9
54 Nogales 03-05-2026 13:15 26,5 31,2 0 2 177 693,1 985,2
53 Nogales 03-05-2026 13:00 26,1 32,2 0 1,7 178 700,6 985,4
52 Nogales 03-05-2026 12:45 26 33,5 0 1,7 161 705,6 985,3
51 Nogales 03-05-2026 12:30 25,6 33,9 0 2 175 705,6 985,5
50 Nogales 03-05-2026 12:15 25,4 36,5 0 1,7 187 703,1 985,6
49 Nogales 03-05-2026 12:00 24,5 38,5 0 1 188 694,4 985,5
48 Nogales 03-05-2026 11:45 24,2 42 0 0,3 180 684,4 985,6
47 Nogales 03-05-2026 11:30 22,6 44,9 0 0,7 216 665,6 985,8
46 Nogales 03-05-2026 11:15 21,1 48,5 0 0,7 208 641,9 985,8
45 Nogales 03-05-2026 11:00 20,5 50,5 0 0,3 197 611,9 985,8
44 Nogales 03-05-2026 10:45 20 52,9 0 0,3 192 581,9 986,1
43 Nogales 03-05-2026 10:30 18,6 55,6 0 0,3 192 548,1 986,4
42 Nogales 03-05-2026 10:15 17 59,9 0 1 177 511,9 986,6
41 Nogales 03-05-2026 10:00 17 61,6 0 0,3 268 474,4 986,5
40 Nogales 03-05-2026 09:45 16,4 63,9 0 0 324 431,9 986,7
39 Nogales 03-05-2026 09:30 16 65,9 0 0 327 385,6 986,6
38 Nogales 03-05-2026 09:15 14,1 72,5 0 0 10 334,4 986,5
37 Nogales 03-05-2026 09:00 11,9 78,5 0 0,3 7 286,9 986,6
36 Nogales 03-05-2026 08:45 10,6 86,7 0 0 291 236,9 986,6
35 Nogales 03-05-2026 08:30 7,9 91,3 0 0 268 185,6 986,5
34 Nogales 03-05-2026 08:15 5,4 92,1 0 0 268 25,6 986,3
33 Nogales 03-05-2026 08:00 4,9 92 0 0 29 16,9 986,1
32 Nogales 03-05-2026 07:45 4,1 91,5 0 0 38 10,6 986,1
31 Nogales 03-05-2026 07:30 4,5 91,7 0 0 38 5,6 985,9
30 Nogales 03-05-2026 07:15 5,2 92,3 0 0 38 1,9 985,5
29 Nogales 03-05-2026 07:00 4,9 92 0 0 38 0,6 985,3
28 Nogales 03-05-2026 06:45 4,6 90,7 0 0,3 38 0,6 985,2
27 Nogales 03-05-2026 06:30 3,8 90,6 0 0 44 0,6 985,2
26 Nogales 03-05-2026 06:15 3,9 90,1 0 0 44 0,6 985,3
25 Nogales 03-05-2026 06:00 4,2 90,1 0 0 44 0,6 985,3
24 Nogales 03-05-2026 05:45 4,8 90 0 0 44 0,6 985,5
23 Nogales 03-05-2026 05:30 4,7 89,5 0 0 44 0,6 985,5
22 Nogales 03-05-2026 05:15 4,9 89,3 0 0 44 0,6 985,2
21 Nogales 03-05-2026 05:00 4,8 88,7 0 0 44 0,6 985
20 Nogales 03-05-2026 04:45 4,9 87,9 0 0 44 0,6 985
19 Nogales 03-05-2026 04:30 5,4 88 0 0 44 0,6 985
18 Nogales 03-05-2026 04:15 6 88,4 0 0 44 0,6 985,4
17 Nogales 03-05-2026 04:00 5,9 87,5 0 0 44 0,6 985,6
16 Nogales 03-05-2026 03:45 6,8 86,8 0 0 44 0,6 985,3
15 Nogales 03-05-2026 03:30 6,2 86,4 0 0 44 0,6 985,5
14 Nogales 03-05-2026 03:15 6,3 86,9 0 0 44 0,6 985,9
13 Nogales 03-05-2026 03:00 6,3 85,8 0 0 44 0,6 985,9
12 Nogales 03-05-2026 02:45 6,2 85,9 0 0 44 0,6 985,8
11 Nogales 03-05-2026 02:30 6 84,4 0 0 44 0,6 986
10 Nogales 03-05-2026 02:15 6,5 84,3 0 0 44 0,6 985,9
9 Nogales 03-05-2026 02:00 7,3 84,2 0 0 44 0,6 986
8 Nogales 03-05-2026 01:45 7,4 84,4 0 0,3 44 0,6 985,8
7 Nogales 03-05-2026 01:30 6,5 82,4 0 0 44 0,6 985,5
6 Nogales 03-05-2026 01:15 7,3 82,4 0 0 44 0,6 985,4
5 Nogales 03-05-2026 01:00 7,6 81,4 0 0 44 0,6 985,4
4 Nogales 03-05-2026 00:45 7,9 81,9 0 0 44 0,6 985,5
3 Nogales 03-05-2026 00:30 7,7 81,2 0 0,3 45 0,6 985,8
2 Nogales 03-05-2026 00:15 7,4 80,1 0 0 46 0,6 985,9
1 Nogales 03-05-2026 00:00 8 79,5 0 0 46 0,6 986,1